Regional Weather Roundup
Issued by NWS

Home | Current Version | Previous Version | Graphics & Text | Print | Product List | Glossary On
Versions: 1 2 3 4 5 6 7 8 9 10 11 12 13 14 15 16 17 18 19 20 21 22 23 24 25 26 27 28 29 30 31 32 33 34 35 36 37 38 39 40 41 42 43 44 45 46 47 48 49 50
270
ASUS44 KJAN 271403
RWRMS

MISSISSIPPI HOURLY WEATHER ROUNDUP
NATIONAL WEATHER SERVICE JACKSON MS
800 AM CST THU NOV 27 2014

NOTE: "FAIR: INDICATES FEW OR NO CLOUDS BELOW 12,000 FEET WITH NO
SIGNIFICANT WEATHER AND/OR OBSTRUCTIONS TO VISIBILITY.

MSZ001>002-007>008-010>013-018>021-025>028-034>036-271500-
NORTHWEST MISSISSIPPI

CITY           SKY/WX    TMP DP  RH WIND       PRES   REMARKS
CLARKSDALE     CLOUDY    37  30  75 N10       30.48S WCI  30
CLEVELAND      CLOUDY    38  32  77 N8        30.49R WCI  32
GREENWOOD      CLOUDY    39  30  70 NW5       30.48R
GREENVILLE     SUNNY     40  30  67 NW9       30.49R WCI  34
GRENADA        CLOUDY    37  32  81 NW5       30.46R WCI  34
OXFORD         CLOUDY    37  27  65 NW9G17    30.44R WCI  31
TUNICA         CLOUDY    37  30  75 N14       30.48R WCI  29
$$

MSZ003>006-009-014>017-022>024-029>033-037>039-271500-
NORTHEAST MISSISSIPPI

CITY           SKY/WX    TMP DP  RH WIND       PRES   REMARKS
COLUMBUS AFB   MOSUNNY   39  29  68 NW12      30.41R WCI  32
CORINTH        CLOUDY    39  30  70 NW13      30.40R WCI  32
GOLDN TRIANGLE SUNNY     39  30  70 NW8       30.40R WCI  34
STARKVILLE     FAIR      37  32  81 W6        30.43R WCI  33
TUPELO         CLOUDY    40  30  67 MISG      30.41R
$$

MSZ040-058-271500-
CENTRAL MISSISSIPPI

CITY           SKY/WX    TMP DP  RH WIND       PRES   REMARKS
JACKSON INTL   SUNNY     43  30  60 N17G26    30.44R
JACKSON HAWKNS SUNNY     43  29  57 N9G18     30.45R
MERIDIAN KEY   SUNNY     41  32  70 N13       30.42R
MERIDIAN NAS   SUNNY     39  31  72 NW7       30.42R WCI  34
RAYMOND        FAIR      41  37  87 N7        30.45R
VICKSBURG      SUNNY     43  31  62 N6        30.48R
$$

MSZ059>079-271500-
SOUTH MISSISSIPPI

CITY           SKY/WX    TMP DP  RH WIND       PRES   REMARKS
BROOKHAVEN     FAIR      43  32  65 CALM      30.45R
HATTIESBURG    SUNNY     46  34  62 NW8       30.43R
MCCOMB         SUNNY     46  31  55 N12       30.44R
NATCHEZ        SUNNY     43  30  61 N12       30.48R
PINE BELT      SUNNY     45  30  57 N9        30.43R
$$

MSZ080>082-271500-
COASTAL MISSISSIPPI

CITY           SKY/WX    TMP DP  RH WIND       PRES   REMARKS
BAY ST LOUIS   SUNNY     46  37  71 N7        30.42R
BILOXI         SUNNY     48  38  66 VRB5      30.40R
PASCAGOULA     SUNNY     48  37  65 NW7       30.39R
GULFPORT       SUNNY     48  38  68 NW10      30.40R
$$



USA.gov is the U.S. government's official web portal to all federal, state and local government web resources and services.